Location: Dead Woman Crossing
(43.5369°N, 106.3228°W)
Time: 08:08:51
(UTC+00:00)

PicSat - Visible Passes

Search period start: 27 June 2022 00:00
Search period end: 07 July 2022 00:00
Orbit: 453 x 459 km, 97.4° (Epoch: 26 June)

Date Brightness Start Highest point End Pass type
(mag) Time Alt. Az. Time Alt. Az. Time Alt. Az.
27 Jun ? 04:39:45 20° E 04:40:50 23° ENE 04:43:34 10° NNE visible
27 Jun ? 06:13:31 21° W 06:13:37 21° W 06:16:17 10° NW visible
28 Jun ? 05:40:01 53° SW 05:40:20 56° W 05:43:44 10° NNW visible
29 Jun ? 05:06:30 41° ESE 05:07:09 48° ENE 05:10:30 10° N visible
30 Jun ? 04:32:56 16° E 04:34:06 19° ENE 04:36:36 10° NNE visible
30 Jun ? 06:06:42 25° W 06:06:49 25° W 06:09:43 10° NW visible
01 Jul ? 05:33:06 65° SSW 05:33:26 72° WSW 05:36:53 10° NNW visible
02 Jul ? 04:59:28 34° ESE 05:00:11 38° ENE 05:03:25 10° N visible
02 Jul ? 06:33:13 12° W 06:33:15 12° W 06:34:43 10° WNW visible
03 Jul ? 04:25:48 13° E 04:27:03 16° ENE 04:29:13 10° NNE visible
03 Jul ? 05:59:33 31° W 05:59:40 31° W 06:02:46 10° NNW visible
04 Jul ? 05:25:51 70° SSE 05:26:13 89° ENE 05:29:40 10° NNW visible
05 Jul ? 04:52:06 28° E 04:52:53 31° ENE 04:55:58 10° N visible
05 Jul ? 06:25:51 15° W 06:25:51 15° W 06:27:54 10° NW visible
06 Jul ? 04:18:20 11° E 04:19:40 13° ENE 04:21:21 10° NE visible
06 Jul ? 05:52:05 39° WSW 05:52:10 39° W 05:55:26 10° NNW visible
